Weather History for Baltimore, MD

Change the Weather History Date:

Wednesday, March 6, 2013

  Actual Average Record
Temperature  
Mean Temperature 37 °F 40 °F  
Max Temperature 40 °F 50 °F 76 °F (1935)
Min Temperature 33 °F 31 °F 13 °F (1901)
Degree Days  
Heating Degree Days 28 25  
Month to date heating degree days 171 152  
Since 1 July heating degree days 3463 3747  
Cooling Degree Days 0 0  
Month to date cooling degree days 0 0  
Year to date cooling degree days 0 0  
Moisture  
Dew Point 33 °F    
Average Humidity 80    
Maximum Humidity 100    
Minimum Humidity 59    
Precipitation  
Precipitation 0.75 in 0.11 in 1.90 in (1932)
Month to date precipitation 0.75 0.66  
Year to date precipitation 6.34 6.61  
Snow  
Snow T in 0.10 in 10.00 in (1962)
Month to date snowfall T 0.7  
Since 1 July snowfall 4.8 18.9  
Snow Depth T in    
Sea Level Pressure  
Sea Level Pressure 29.73 in    
Wind  
Wind Speed 16 mph (NNE)    
Max Wind Speed 25 mph    
Max Gust Speed 36 mph    
Visibility 5 miles    
Events Rain , Snow    
T = Trace of Precipitation, MM = Missing Value Source: NWS Daily Summary

Daily Weather History Graph

Daily Weather History Graph

Search for Another Location

Airport:

Trip Planner

Search our weather history database for the weather conditions in past years. The results will help you decide how hot, cold, wet, or windy it might be!

Date:

Astronomy

Mar. 06, 2013 Rise Set
Actual Time 6:31 AM EST 6:04 PM EST
Civil Twilight 6:04 AM EST 6:31 PM EST
Nautical Twilight 5:33 AM EST 7:02 PM EST
Astronomical Twilight 5:02 AM EST 7:33 PM EST
Moon 2:37 AM EST (3/6) 12:46 PM EST (3/6)
Length of Visible Light 12h 26m
Length of Day
11h 33m
Waning Crescent, 30% of the Moon is Illuminated
Mar 6
Waning Crescent
Mar 11
New
Mar 19
First Quarter
Mar 27
Full
Apr 3
Last Quarter

Hourly Weather History & Observations

Time (EST) Temp. Windchill Dew Point Humidity Pressure Visibility Wind Dir Wind Speed Gust Speed Precip Events Conditions
12:54 AM 37.9 °F 29.6 °F 27.0 °F 65% 29.81 in 10.0 mi East 13.8 mph - N/A   Overcast
1:01 AM 37.4 °F 28.9 °F 28.4 °F 70% 29.80 in 8.0 mi East 13.8 mph - 0.00 in Snow Light Snow
1:34 AM 33.8 °F 22.2 °F 30.2 °F 87% 29.79 in 2.5 mi East 20.7 mph 25.3 mph 0.00 in Snow Light Snow
1:46 AM 33.8 °F 23.5 °F 32.0 °F 93% 29.77 in 2.0 mi East 16.1 mph - 0.01 in Snow Light Snow
1:50 AM 33.8 °F 24.3 °F 32.0 °F 93% 29.76 in 1.2 mi East 13.8 mph - 0.01 in Snow Light Snow
1:54 AM 34.0 °F 24.2 °F 32.0 °F 92% 29.76 in 1.2 mi ENE 15.0 mph - 0.02 in Snow Light Snow
1:59 AM 33.8 °F 23.9 °F 32.0 °F 93% 29.76 in 1.2 mi ENE 15.0 mph - 0.00 in Snow Light Snow
2:54 AM 34.0 °F 23.8 °F 32.0 °F 92% 29.72 in 1.5 mi ENE 16.1 mph 26.5 mph 0.04 in Snow Light Snow
3:54 AM 33.1 °F 22.6 °F 32.0 °F 96% 29.68 in 1.0 mi NE 16.1 mph - 0.05 in Snow Light Snow
4:23 AM 33.8 °F 22.8 °F 32.0 °F 93% 29.67 in 2.0 mi ENE 18.4 mph 25.3 mph 0.03 in Snow Light Snow
4:35 AM 33.8 °F 23.2 °F 32.0 °F 93% 29.67 in 3.0 mi ENE 17.3 mph 23.0 mph 0.03 in Rain , Snow Light Rain
4:54 AM 34.0 °F 23.0 °F 33.1 °F 96% 29.67 in 2.5 mi ENE 18.4 mph 24.2 mph 0.04 in Rain , Snow Light Snow
5:00 AM 33.8 °F 22.5 °F 33.8 °F 100% 29.66 in 3.0 mi ENE 19.6 mph 25.3 mph 0.01 in Rain , Snow Light Snow
5:54 AM 34.0 °F 22.1 °F 33.1 °F 96% 29.67 in 4.0 mi ENE 21.9 mph 28.8 mph 0.04 in Rain , Snow Light Rain
6:14 AM 33.8 °F 21.9 °F 33.8 °F 100% 29.65 in 2.0 mi ENE 21.9 mph 28.8 mph 0.02 in Rain , Snow Light Snow
6:54 AM 33.8 °F 22.5 °F 33.8 °F 100% 29.64 in 1.5 mi NE 19.6 mph 26.5 mph N/A Snow Light Snow
7:54 AM 34.0 °F 23.8 °F 33.1 °F 96% 29.64 in 1.2 mi NE 16.1 mph - 0.07 in Snow Light Snow
8:01 AM 35.6 °F 25.2 °F 33.8 °F 93% 29.64 in 2.0 mi NE 18.4 mph 25.3 mph 0.01 in Rain , Snow Light Rain
8:54 AM 37.0 °F 26.4 °F 35.1 °F 93% 29.64 in 2.5 mi NE 20.7 mph 29.9 mph 0.05 in Rain , Snow Light Rain
9:19 AM 37.4 °F 26.9 °F 35.6 °F 93% 29.63 in 3.0 mi NE 20.7 mph 32.2 mph 0.01 in Rain , Snow Light Rain
9:54 AM 37.0 °F 26.4 °F 35.1 °F 93% 29.64 in 5.0 mi NNE 20.7 mph 29.9 mph 0.05 in Rain , Snow Light Rain
10:15 AM 37.4 °F 27.8 °F 35.6 °F 93% 29.64 in 2.5 mi NE 17.3 mph 26.5 mph 0.03 in Rain , Snow Light Rain
10:40 AM 37.4 °F 26.6 °F 35.6 °F 93% 29.64 in 3.0 mi NNE 21.9 mph 32.2 mph 0.08 in Rain , Snow Rain
10:54 AM 37.0 °F 26.2 °F 34.0 °F 89% 29.65 in 3.0 mi NNE 21.9 mph 27.6 mph 0.10 in Rain , Snow Rain
10:56 AM 37.4 °F 26.6 °F 33.8 °F 87% 29.64 in 2.5 mi NNE 21.9 mph 33.4 mph 0.01 in Rain , Snow Rain
11:20 AM 35.6 °F 26.2 °F 33.8 °F 93% 29.65 in 1.8 mi NNE 15.0 mph 26.5 mph 0.05 in Rain , Snow Rain
11:40 AM 35.6 °F 25.5 °F 33.8 °F 93% 29.64 in 3.0 mi North 17.3 mph 25.3 mph 0.08 in Rain , Snow Rain
11:54 AM 36.0 °F 26.0 °F 34.0 °F 93% 29.65 in 4.0 mi North 17.3 mph 29.9 mph 0.10 in Rain , Snow Rain
12:54 PM 37.0 °F 27.0 °F 34.0 °F 89% 29.65 in 6.0 mi North 18.4 mph 29.9 mph 0.06 in Rain , Snow Light Rain
1:50 PM 37.4 °F 27.8 °F 33.8 °F 87% 29.66 in 3.0 mi North 17.3 mph 33.4 mph 0.02 in Rain , Snow Light Rain
1:54 PM 37.0 °F 28.1 °F 34.0 °F 89% 29.67 in 4.0 mi North 15.0 mph 33.4 mph 0.02 in Rain , Snow Light Rain
2:46 PM 37.4 °F 27.5 °F 33.8 °F 87% 29.70 in 4.0 mi North 18.4 mph 33.4 mph 0.01 in Rain Light Rain
2:54 PM 37.0 °F 27.7 °F 34.0 °F 89% 29.72 in 6.0 mi North 16.1 mph 29.9 mph 0.01 in Rain Light Rain
3:54 PM 37.0 °F 27.0 °F 34.0 °F 89% 29.76 in 9.0 mi North 18.4 mph 31.1 mph 0.02 in Rain , Snow Light Rain
4:54 PM 37.9 °F 27.9 °F 34.0 °F 86% 29.81 in 10.0 mi North 19.6 mph 29.9 mph 0.02 in Rain , Snow Light Rain
5:42 PM 39.2 °F 32.0 °F 35.6 °F 87% 29.85 in 10.0 mi North 11.5 mph 31.1 mph 0.01 in Rain Light Rain
5:54 PM 39.0 °F 31.0 °F 35.1 °F 86% 29.86 in 10.0 mi North 13.8 mph 28.8 mph 0.01 in Rain Light Rain
6:54 PM 39.0 °F 31.4 °F 34.0 °F 82% 29.90 in 10.0 mi North 12.7 mph 31.1 mph 0.00 in   Overcast
7:54 PM 39.0 °F 31.0 °F 32.0 °F 76% 29.93 in 10.0 mi North 13.8 mph 25.3 mph N/A   Overcast
8:54 PM 39.9 °F 32.9 °F 30.0 °F 68% 29.93 in 10.0 mi North 11.5 mph 27.6 mph N/A   Mostly Cloudy
9:54 PM 39.9 °F 35.1 °F 30.0 °F 68% 29.94 in 10.0 mi North 6.9 mph 16.1 mph N/A   Mostly Cloudy
10:54 PM 39.9 °F 33.9 °F 28.9 °F 65% 29.96 in 10.0 mi North 9.2 mph - N/A   Mostly Cloudy
11:54 PM 39.9 °F 33.4 °F 28.0 °F 63% 29.97 in 10.0 mi NNW 10.4 mph 17.3 mph N/A   Mostly Cloudy